Location: Bailen
(14.1842°N, 120.7958°E)
Time: 18:42:49
(UTC+00:00)

Hubble Space Telescope - Pass Details

Date: 12 January 2026
Orbit: 478 x 479 km, 28.5° (Epoch: 17 February)

Event Time Altitude Azimuth Distance (km) Brightness Sun altitude
Exits shadow 21:34:42 15° 322° (NW) 1,376 2.4 -12.1°
Maximum altitude 21:37:23 33° 22° (NNE) 812 1.7 -11.5°
Drops below altitude 10° 21:40:49 10° 88° (E) 1,633 4.5 -10.7°
Sets 21:43:09 0° 98° (E) 2,509 6.1 -10.2°
